Regional Weather Roundup
Issued by NWS Pendleton, OR

Home | Current Version | Previous Version | Text Only | Print | Product List | Glossary On
Versions: 1 2 3 4 5 6 7 8 9 10 11 12 13 14 15 16 17 18 19 20 21 22 23 24 25 26 27 28 29 30 31 32 33 34 35 36 37 38 39 40 41 42 43 44 45 46 47 48 49 50
000
ASUS46 KPDT 250525
RWRPDT
PENDLETON REGIONAL WEATHER ROUNDUP
NATIONAL WEATHER SERVICE PENDLETON OREGON
1000 PM PDT TUE MAY 24 2016

NOTE: FAIR INDICATES FEW OR NO CLOUDS BELOW 12,000 FEET WITH NO
SIGNIFICANT WEATHER AND/OR OBSTRUCTIONS TO VISIBILITY.

# INDICATES UNOFFICIAL STATION AND DATA

WAZ520-250610-
EAST SLOPES OF WASHINGTON CASCADES

CITY            SKY/WX      TMP DP  RH  WIND    PRES   REMARKS
#CLE ELUM HS    N/A         53  44  71  NW5     29.93R
#CLE ELUM 2NW   N/A         52  43  71  W2      N/A
#GLENWOOD       N/A         48  44  86  CALM    29.94R
#MANASTASH CYN  N/A         50  39  66  CALM    29.93R
#NELSON 3SW     N/A         50  42  74  CALM    30.13R
#NILE           N/A         53  43  69  CALM    29.23R
#TEANAWAY 4NE   N/A         50  45  83  SW1     N/A
#TROUT LAKE 1NE N/A         54  45  71  W1      29.93R
#TROUT LAKE 1E  N/A         53  46  77  CALM    29.94R
$$

WAZ521-250610-
SIMCOE HIGHLANDS

CITY            SKY/WX      TMP DP  RH  WIND    PRES   REMARKS
#CENTERVILLE 1SWN/A         55  45  69  W9      29.88R
#GOLDENDALE 1NE N/A         56  37  49  CALM    N/A
#GOLDENDALE 4W  N/A         57  50  77  W9      29.98R
#GOODNOE HILLS  N/A         60  48  64  W7      29.83R
#LYLE 6NE       N/A         56  48  74  SW7     29.91R
$$

WAZ026-250610-
KITTITAS VALLEY

CITY            SKY/WX      TMP DP  RH  WIND    PRES   REMARKS
ELLENSBURG AP   CLEAR       57  43  59  NW20G26 29.93R
#ELLENSBURG CWU N/A         55  43  64  NW12    29.85R
#ELLENSBURG 3NE N/A         54  45  71  N8      29.93R
#ELLENSBURG     N/A         58  47  67  NW6     N/A
#ELLENSBURG 1E  N/A         56  N/A N/A NW1     N/A
#ELLENSBURG 13S N/A         59  46  62  CALM    N/A
#KITTITAS 4N    N/A         54  43  66  W16     29.97R
#KITTITAS 3S    N/A         55  45  69  NW5     29.89R
#THORP 6N       N/A         52  44  74  NW15    29.94R
$$

WAZ027-250610-
YAKIMA VALLEY

CITY            SKY/WX      TMP DP  RH  WIND    PRES   REMARKS
SUNNYSIDE AP    CLEAR       59  45  60  CALM    29.89R
YAKIMA AIRPORT  CLEAR       63  42  46  NW9     29.92R
YAKIMA-VAGABOND CLEAR       60  40  47  N8      29.91R
#DONALD 2NE     N/A         62  24  23  N6      28.74R
#GRANDVIEW      N/A         63  44  50  NW1     29.89R
#MABTON         N/A         63  49  60  SW6     29.89R
#NACHES 2SW     N/A         57  45  64  W12     29.90S
#TERRACE HTS    N/A         60  42  51  N3      29.86R
#TOPPENISH      N/A         63  45  52  CALM    29.80R
#WEST VALLEY    N/A         61  44  53  NW9     29.87R
#W YAKIMA       N/A         59  44  57  NW2     29.89R
#WHITE SWAN 5E  N/A         59  46  62  CALM    29.89R
#WILEY CITY 3W  N/A         56  40  55  CALM    29.89R
$$

WAZ028-250610-
LOWER COLUMBIA BASIN...WASHINGTON

CITY            SKY/WX      TMP DP  RH  WIND    PRES   REMARKS
HANFORD         MOCLEAR     65  42  43  NW15    29.86
PASCO           CLEAR       67  46  47  S6      29.87R
PROSSER AWOS    N/A         61  48  62  SW9     29.92R
RICHLAND AWOS   CLEAR       64  49  58  W8      29.88R
#BENTON CITY    N/A         60  45  58  SW1     29.78R
#CONNELL 5N     N/A         58  43  57  CALM    29.86R
#CONNELL 5NW    N/A         59  43  55  CALM    29.83R
#ELTOPIA 6NW    N/A         63  48  58  CALM    28.85R
#KAHLOTUS       N/A         63  41  44  CALM    29.86R
#KENNEWICK 3S   N/A         61  48  62  N6      29.86R
#PATERSON       N/A         61  52  72  NW5     29.85R
#SAGEMOOR 2W    N/A         62  48  60  CALM    29.72R
#TOUCHET 2S     N/A         61  48  62  CALM    29.85R
#WEST PASCO     N/A         65  47  52  CALM    29.92R
$$

WAZ029-250610-
FOOTHILLS OF THE BLUES...WASHINGTON

CITY            SKY/WX      TMP DP  RH  WIND    PRES   REMARKS
WALLA WALLA AP  CLEAR       56  47  72  E9      29.89R
#CLYDE 6NW      N/A         53  43  69  CALM    29.86R
#DAYTON SCHOOL  N/A         55  43  64  NE5     29.93R
#LOWDEN 2SE     N/A         56  48  74  CALM    29.85R
#PLEASANT VIEW 1N/A         57  45  64  S2      29.91R
#PRESCOTT       N/A         53  48  83  CALM    29.86R
#SUDBURY        N/A         62  N/A N/A CALM    N/A
#WHITMAN COLLEGEN/A         60  48  64  E2      29.92R
#WAITSBURG 8N   N/A         49  21  33  CALM    29.74R
#WALLA WALLA 5E N/A         55  47  74  NE3     N/A
#WHITMAN MISSIONN/A         59  51  75  CALM    29.88R
$$

WAZ030-250610-
BLUE MOUNTAINS...WASHINGTON

CITY            SKY/WX      TMP DP  RH  WIND    PRES   REMARKS
#DIXIE 5SE      N/A         48  41  77  S6      29.87R
$$

ORZ009-041-WAZ024-250610-
COLUMBIA RIVER GORGE

CITY            SKY/WX      TMP DP  RH  WIND    PRES   REMARKS
HOOD RIVER AP   CLEAR       55  45  69  CALM    29.97R
THE DALLES AP   CLEAR       63  44  50  W10     29.94R
#ARLINGTON AIRPON/A         62  47  58  W12     29.90R
#CELILO DOT     N/A         65  43  45  SW8     N/A
#LYLE           N/A         62  50  65  W7      29.96R
#MARYHILL 2W    N/A         63  47  56  NW9     N/A
#MOSIER 1S      N/A         59  35  40  NW3     29.94R
#MURDOCK        N/A         64  48  56  NW15G26 29.90R
#RUFUS DOT      N/A         66  46  48  W17     N/A
#SMITHIVILLE    N/A         62  48  60  W12     29.85R

$$

ORZ510-250610-
NORTH CENTRAL OREGON

CITY            SKY/WX      TMP DP  RH  WIND    PRES   REMARKS
#ANTELOPE       N/A         50  42  74  CALM    29.83R
#CHENOWITH 1W   N/A         55  44  66  W21     N/A
#COW CYN RST AREN/A         50  42  74  SW1     N/A
#DUFUR 9E       N/A         53  42  66  W7      29.98R
#GRASS VALLEY   N/A         49  42  77  S1      N/A
#GRASS VALLEY 1SN/A         49  42  77  W1      29.92R
#KENT DOT       N/A         49  34  56  N9      N/A
#MAUPIN SCHOOL  N/A         58  45  62  CALM    29.99R
#MORO SCHOOL    N/A         56  47  72  W14     29.96R
#SHANIKO 4NW    N/A         48  -56  1  W3      29.98R
#TYGH VALLEY 2NEN/A         54  44  69  W1      29.94R
#WAPANITIA AIRPON/A         52  44  74  W3      29.95R
#WASCO DOT      N/A         58  42  55  W6      N/A
#WASCO AIRPORT  N/A         56  43  62  W13     N/A
#WASCO 5NE      N/A         56  46  69  CALM    29.91R
$$

ORZ511-250610-
CENTRAL OREGON

CITY            SKY/WX      TMP DP  RH  WIND    PRES   REMARKS
BEND AIRPORT    MOCLDY      52  39  61  N5      30.01R
MADRAS AIRPORT  CLOUDY      59  46  62  NW7     30.01R
PRINEVILLE AP   MOCLDY      50  41  71  CALM    30.01R
REDMOND AIRPORT CLOUDY      49  40  71  CALM    30.00R
#ASHWOOD SCHOOL N/A         52  42  69  CALM    29.95R
#BEND 1SW       N/A         49  42  77  CALM    N/A
#BEND-AWBREY    N/A         51  42  71  CALM    29.97R
#BEND-KIM LN    N/A         51  42  71  CALM    29.98R
#CULVER         N/A         53  42  66  CALM    29.92R
#CULVER 8W      N/A         51  41  68  CALM    29.99R
#LAKE BILLY CHINN/A         55  N/A N/A W6      30.06R
#MADRAS 4S      N/A         54  14  20  CALM    30.06R
#POWELL BUTTE 3EN/A         53  41  64  N7      N/A
#POWELL BUTTE   N/A         48  39  71  CALM    29.88R
#PRINEVILLE 3N  N/A         51  43  74  N3      29.95R
#WARM SPRINGS   N/A         58  44  60  CALM    29.95R

$$


ORZ509-250610-
EAST SLOPES OF OREGON CASCADES

CITY            SKY/WX      TMP DP  RH  WIND    PRES   REMARKS
SISTERS AWOS    N/A         52  41  66  CALM    29.98R
#BLUE BOX PASS  N/A         44  N/A N/A CALM    N/A
#CAMP SHERMAN   N/A         46  39  76  CALM    30.03R
#LA PINE DOT    N/A         50  35  56  W6      N/A
#LA PINE 4NW    N/A         46  39  76  CALM    30.02R
#LAVA BUTTE DOT N/A         49  36  61  CALM    N/A
#SISTERS AIRPOR N/A         32  32  100 CALM    30.17S
#SISTERS ODOT   N/A         51  N/A N/A CALM    N/A
#SISTERS 1NW    N/A         49  39  68  N7      N/A
#SISTERS 3N     N/A         48  36  63  CALM    30.00R
#SUNRIVER       N/A         49  42  77  CALM    30.00R
#TUMALO 3W      N/A         48  39  71  N5      29.84R
#WANOGA BUTTE D N/A         41  35  79  CALM    N/A

$$

ORZ044-250610-
LOWER COLUMBIA BASIN...OREGON

CITY            SKY/WX      TMP DP  RH  WIND    PRES   REMARKS
HERMISTON       CLEAR       61  45  56  SW9     29.89R
#BOARDMAN SCHOOLN/A         63  48  58  S6      29.88R
#ECHO 8SW       N/A         59  44  57  SW3     29.91R
#I-84 EX 198 DOTN/A         61  43  51  E8      N/A
#UMATILLA SCHOOLN/A         61  53  75  CALM    29.94R
#UMATILLA       N/A         62  46  56  S1      29.80R
$$

ORZ507-250610-
NORTHERN FOOTHILLS OF THE BLUES

CITY            SKY/WX      TMP DP  RH  WIND    PRES   REMARKS
PENDLETON AIRPT PTCLDY      56  42  59  W9      29.91R
#ADAMS 3WNW     N/A         53  46  77  CALM    29.89R
#ATHENA         N/A         53  45  74  CALM    29.91R
#CAYUSE         N/A         56  46  69  E2      29.89R
#HELIX SCHOOL   N/A         52  44  74  CALM    29.89R
#HELIX 3N       N/A         53  45  74  W7      29.90R
#HOLDMAN 5SE    N/A         55  47  74  CALM    29.91R
#HOLDMAN 6E     N/A         55  45  69  CALM    29.70R
#M-F GROVE ELEM N/A         56  43  62  CALM    29.88R
#M-FREEWATER 5SEN/A         55  45  69  CALM    29.91R
#PENDLETON DNTN N/A         62  38  41  CALM    29.92R
#PDT AQUATIC CTRN/A         62  37  39  W3      29.93R
#PDT SUNRIDGE   N/A         61  43  51  W3      29.92R
#PENDLETON 7NW  N/A         60  46  60  CALM    32.29S
#PILOT ROCK 1S  N/A         55  40  57  S6      29.93R
#PILOT ROCK     N/A         56  42  59  SW3     29.95R
#TUTUILLA       N/A         53  44  71  CALM    29.91R
#UMAPINE 2E     N/A         53  47  80  CALM    29.86R
#WESTON SCHOOL  N/A         54  43  66  NW1     29.82R

$$

ORZ508-250610-
SOUTHERN FOOTHILLS OF THE BLUES

CITY            SKY/WX      TMP DP  RH  WIND    PRES   REMARKS
LEXINGTON       CLEAR       55  43  64  CALM    29.97R
#AJAX           N/A         55  38  53  S7      27.71R
#CONDON SCHOOL  N/A         51  42  71  W5      29.93R
#CONDON 5W      N/A         47  39  74  W6      29.95R
#FOSSIL SCHOOL  N/A         54  42  64  CALM    29.93R
#HEPPNER EOC    N/A         53  43  69  SW3     29.86R
#HEPPNER 4NE    N/A         51  42  71  W5      29.91R
#LEXINGTON 2SE  N/A         53  43  69  CALM    29.90R
#RUGGS 5NE      N/A         50  41  71  W3      30.14S
#RUGGS 2SW      N/A         51  42  71  W7      29.94R

$$

ORZ502-503-250610-
BLUE MOUNTAINS

CITY            SKY/WX      TMP DP  RH  WIND    PRES   REMARKS
MEACHAM         MOCLDY      45  40  82  CALM    29.97R
#BATTLE MTN DOT N/A         48  44  86  CALM    N/A
#CUTSFORTH PARK N/A         46  43  89  CALM    29.75R
#GREENHORN 9SW  N/A         43  38  82  CALM    26.17R
#HARDMAN 10S    N/A         45  40  82  CALM    30.07R
#HEPPNER 15SE   N/A         47  42  83  CALM    25.51R
#LADD CYN SMT   N/A         48  38  68  NW2     N/A
#LADD CREEK ODOTN/A         49  42  77  SW1     N/A
#LONG CREEK HS  N/A         50  46  86  CALM    N/A
#N POWDER DOT   N/A         50  42  74  N7      N/A
#PIKES PEAK     N/A         56  40  55  SW1     27.99S
#TOLLGATE       N/A         44  40  86  CALM    29.85S
#TROY SCHOOL    N/A         49  44  83  CALM    29.78R
#UKIAH          N/A         46  42  86  CALM    29.84R
#WESTON 4E      N/A         54  42  64  CALM    29.87R
$$

ORZ505-250610-
JOHN DAY BASIN

CITY            SKY/WX      TMP DP  RH  WIND    PRES   REMARKS
JOHN DAY        CLOUDY      55  40  57  CALM    29.97R
#DAYVILLE SCHOOLN/A         55  40  57  CALM    29.93R
#MITCHELL       N/A         49  44  83  CALM    30.13R
#MITCHELL 8NW   N/A         50  40  68  SW5     30.13R
#MONUMENT HS    N/A         60  42  51  E2      29.89R
#MT. VERNON 5SE N/A         52  41  66  CALM    29.93R
#SPRAY SCHOOL   N/A         57  N/A N/A CALM    N/A
#WINLOCK        N/A         50  41  71  CALM    29.93R
$$

ORZ506-250610-
OCHOCO AND JOHN DAY HIGHLANDS

CITY            SKY/WX      TMP DP  RH  WIND    PRES   REMARKS
#HORSE RIDGE DO N/A         49  38  66  SW3     N/A
#KEYES SMT DOT  N/A         46  37  71  N6      N/A
#PAULINA SCHOOL N/A         53  38  57  N2      N/A
#PINE MTN OBS   N/A         38  35  89  NW2     N/A
#PRAIRIE CITY   N/A         49  41  74  CALM    30.09R
#SENECA 9NW     N/A         44  37  76  CALM    29.95R
$$

ORZ049-250610-
GRANDE RONDE VALLEY

CITY            SKY/WX      TMP DP  RH  WIND    PRES   REMARKS
LA GRANDE       PTCLDY      52  36  54  NW5     29.94R
#COVE           N/A         52  46  80  CALM    29.98R
#COVE SCHOOL    N/A         52  44  74  CALM    29.97R
#COVE 6NW       N/A         51  45  80  NW2     29.83R
#ELGIN 3N       N/A         53  43  69  CALM    29.94R
#ELGIN 1E       N/A         53  44  71  CALM    N/A
#ISLAND CITY 4N N/A         56  49  77  CALM    30.03R
#LADD CYN DOT   N/A         53  43  69  SE7     N/A
#UNION 1S       N/A         52  44  74  CALM    29.81R
$$

ORZ050-250610-
WALLOWA COUNTY

CITY            SKY/WX      TMP DP  RH  WIND    PRES   REMARKS
JOSEPH AIRPORT  CLOUDY      46  43  89  CALM    29.99R
#ENTERPRISE AP  N/A         49  29  46  CALM    29.91R
#ENTERPRISE HS  N/A         46  43  89  CALM    29.99R
#IMNAHA SCHOOL  N/A         54  46  74  CALM    29.95R
#IMNAHA 10S     N/A         48  44  86  SW2     29.96R
#JOSEPH 3N      N/A         44  38  79  CALM    30.00R
#JOSEPH 3W      N/A         42  42  100 SW1     29.82R
#LOSTINE        N/A         46  43  89  CALM    29.74R
#LOSTINE 3SE    N/A         48  45  89  CALM    29.97R
#MT HOWARD 8000 N/A         33  32  96  CALM    30.02R
#PROMISE 1S     N/A         42  39  89  CALM    30.05R
#WALLOWA SCHOOL N/A         45  43  93  CALM    29.94R



$$



USA.gov is the U.S. government's official web portal to all federal, state and local government web resources and services.